Joplin, MO

1:06 AM CDT on August 22, 2017 (GMT -0500)
Joplin Regional

Weather History for KJLN - July, 2013

Change the Weather History Date:

Thursday, July 25, 2013

  Actual Average Record
Temperature  
Mean Temperature 76 °F 81 °F  
Max Temperature 90 °F 91 °F 104 °F (2012)
Min Temperature 62 °F 70 °F 59 °F (1991)
Degree Days  
Heating Degree Days 0 0  
Month to date heating degree days 0 0  
Since 1 June heating degree days 12 5  
Since 1 July heating degree days 0 0  
Cooling Degree Days 11 16  
Month to date cooling degree days 358 379  
Year to date cooling degree days 825 877  
Since 1 June cooling degree days 681 697  
Growing Degree Days 26 (Base 50)    
Moisture  
Dew Point 63 °F    
Average Humidity 67    
Maximum Humidity 93    
Minimum Humidity 40    
Precipitation  
Precipitation T in 0.10 in 3.85 in (1958)
Month to date precipitation 0.22 3.19  
Year to date precipitation 28.00 27.00  
Snow  
Snow 0.00 in - - ()
Month to date snowfall 0.0  
Since 1 June snowfall 0.0  
Snow Depth 0.00 in    
Sea Level Pressure  
Sea Level Pressure 30.04 in    
Wind  
Wind Speed 5 mph (SE)    
Max Wind Speed 13 mph    
Max Gust Speed 16 mph    
Visibility 10 miles    
Events      
T = Trace of Precipitation, MM = Missing Value Source: NWS Daily Summary

Daily Weather History Graph

Daily Weather History Graph

Search for Another Location

Airport or City:

Trip Planner

Search our weather history database for the weather conditions in past years. The results will help you decide how hot, cold, wet, or windy it might be!

Date:

Astronomy

Jul. 25, 2013 Rise Set
Actual Time 6:17 AM CDT 8:31 PM CDT
Civil Twilight 5:48 AM CDT 9:00 PM CDT
Nautical Twilight 5:12 AM CDT 9:36 PM CDT
Astronomical Twilight 4:32 AM CDT 10:15 PM CDT
Moon 10:19 PM CDT (7/25) 9:41 AM CDT (7/25)
Length of Visible Light 15h 12m
Length of Day
14h 13m
Waning Gibbous, 88% of the Moon is Illuminated
Jul 25
Waning Gibbous
Jul 29
Last Quarter
Aug 6
New
Aug 14
First Quarter
Aug 20
Full

Hourly Weather History & Observations

Time (CDT) Temp. Heat Index Dew Point Humidity Pressure Visibility Wind Dir Wind Speed Gust Speed Precip Events Conditions
12:53 AM 66.0 °F - 63.0 °F 90% 30.03 in 10.0 mi Calm Calm - N/A   Clear
1:53 AM 66.9 °F - 62.1 °F 84% 30.03 in 10.0 mi ENE 3.5 mph - N/A   Clear
2:53 AM 63.0 °F - 61.0 °F 93% 30.04 in 10.0 mi Calm Calm - N/A   Clear
3:53 AM 64.0 °F - 61.0 °F 90% 30.04 in 10.0 mi East 3.5 mph - N/A   Clear
4:53 AM 63.0 °F - 61.0 °F 93% 30.04 in 10.0 mi ENE 4.6 mph - N/A   Clear
5:53 AM 64.0 °F - 61.0 °F 90% 30.02 in 10.0 mi East 6.9 mph - N/A   Clear
6:53 AM 64.9 °F - 61.0 °F 87% 30.05 in 10.0 mi Variable 4.6 mph - N/A   Clear
7:53 AM 70.0 °F - 61.0 °F 73% 30.06 in 10.0 mi SE 8.1 mph - N/A   Clear
8:53 AM 73.0 °F - 62.1 °F 68% 30.07 in 10.0 mi SE 8.1 mph - N/A   Clear
9:53 AM 77.0 °F - 63.0 °F 62% 30.08 in 10.0 mi SSE 5.8 mph - N/A   Clear
10:53 AM 80.1 °F 81.7 °F 64.0 °F 58% 30.09 in 10.0 mi Calm Calm - N/A   Clear
11:53 AM 82.9 °F 83.3 °F 61.0 °F 47% 30.08 in 10.0 mi ESE 5.8 mph - N/A   Clear
12:53 PM 86.0 °F 86.8 °F 63.0 °F 46% 30.07 in 10.0 mi Variable 5.8 mph - N/A   Clear
1:53 PM 87.1 °F 87.5 °F 62.1 °F 43% 30.06 in 10.0 mi SSE 5.8 mph - N/A   Clear
2:53 PM 88.0 °F 87.6 °F 60.1 °F 39% 30.05 in 10.0 mi SSE 6.9 mph - N/A   Clear
3:53 PM 88.0 °F 88.7 °F 63.0 °F 43% 30.05 in 10.0 mi Variable 3.5 mph - N/A   Scattered Clouds
4:53 PM 84.9 °F 85.4 °F 62.1 °F 46% 30.03 in 10.0 mi SSE 10.4 mph - N/A   Clear
5:53 PM 84.0 °F 84.5 °F 62.1 °F 47% 30.04 in 10.0 mi SSE 6.9 mph - N/A   Clear
6:53 PM 82.9 °F 84.0 °F 63.0 °F 51% 30.03 in 10.0 mi SSE 6.9 mph - N/A   Clear
7:53 PM 81.0 °F 82.7 °F 64.9 °F 58% 30.02 in 10.0 mi SE 5.8 mph - N/A   Clear
8:53 PM 78.1 °F - 64.9 °F 64% 30.00 in 10.0 mi ESE 4.6 mph - N/A   Clear
9:53 PM 78.1 °F - 64.9 °F 64% 30.02 in 10.0 mi SE 3.5 mph - N/A   Clear
10:53 PM 75.0 °F - 64.9 °F 71% 30.04 in 10.0 mi South 5.8 mph - 0.00 in   Partly Cloudy
11:53 PM 75.0 °F - 66.0 °F 73% 30.01 in 10.0 mi SE 4.6 mph - N/A   Clear